User: anonymous   Login
Location: Brookfield Center
(41.2406°N, 80.5579°W)
Time: 19:37:59
(UTC+00:00)
Language:

COSMOS 2428 - Orbit

View from above orbital plane
View from above orbital plane
View from above satellite
View from above satellite

Ground track
Ground track

The orbit data is extracted from the following two-line orbital elements,

1 31792U 07029A   20090.73825938 -.00000252  00000-0 -11084-3 0  9994
2 31792  70.9199  78.2495 0007351 199.6822 160.4016 14.12371555657759
Epoch (UTC): 30 March 2020 17:43:05
Eccentricity: 0.0007351
inclination: 70.9199°
perigee height: 846 km
apogee height: 856 km
right ascension of ascending node: 78.2495°
argument of perigee: 199.6822°
revolutions per day: 14.12371555
mean anomaly at epoch: 160.4016°
orbit number at epoch: 65775

The dashed part of the orbit path shows where the satellite is in the earth's shadow,  

DLR